Pian Rosa, Italy

4:12 PM CEST on June 24, 2017 (GMT +0200)
Pian Rosa

Weather History for LIMH - September, 2013

Change the Weather History Date:

Saturday, September 7, 2013

  Actual Average Record
Temperature  
Mean Temperature 36 °F -  
Max Temperature 38 °F 34 °F 46 °F (2006)
Min Temperature 33 °F 25 °F 24 °F (2008)
Degree Days  
Heating Degree Days 30    
Moisture  
Dew Point 33 °F    
Average Humidity 90    
Maximum Humidity 100    
Minimum Humidity 74    
Precipitation  
Precipitation 0.02 in - - ()
Sea Level Pressure  
Sea Level Pressure 30.45 in    
Wind  
Wind Speed 13 mph ()    
Max Wind Speed 25 mph    
Max Gust Speed 45 mph    
Visibility 0.4 miles    
Events Fog , Rain , Snow    
Averages and records for this station are not official NWS values.
T = Trace of Precipitation, MM = Missing Value Source: Averaged Metar Reports

Daily Weather History Graph

Daily Weather History Graph

Search for Another Location

Airport or City:

Trip Planner

Search our weather history database for the weather conditions in past years. The results will help you decide how hot, cold, wet, or windy it might be!

Date:

Astronomy

Sep. 07, 2013 Rise Set
Actual Time 6:57 AM CEST 7:56 PM CEST
Civil Twilight 6:27 AM CEST 8:26 PM CEST
Nautical Twilight 5:50 AM CEST 9:02 PM CEST
Astronomical Twilight 5:12 AM CEST 9:40 PM CEST
Moon 9:04 AM CEST (9/7) 8:34 PM CEST (9/7)
Length of Visible Light 13h 59m
Length of Day
12h 58m
Waxing Crescent, 4% of the Moon is Illuminated
Sep 7
Waxing Crescent
Sep 12
First Quarter
Sep 19
Full
Sep 27
Last Quarter
Oct 5
New

Hourly Weather History & Observations

Time (CEST) Temp. Windchill Dew Point Humidity Pressure Visibility Wind Dir Wind Speed Gust Speed Precip Events Conditions
12:55 AM 35.6 °F 30.7 °F 32.0 °F 87% 30.42 in 6.2 mi SSW 5.8 mph - N/A   Overcast
1:55 AM 35.6 °F 30.7 °F 33.8 °F 93% 30.42 in 0.2 mi South 5.8 mph - N/A Fog Fog
2:00 AM 36 °F - 33 °F 87%  in 0 mi South 5.8 mph - - Fog Heavy Fog
2:55 AM 35.6 °F 27.1 °F 33.8 °F 93% 30.42 in 0.2 mi SSE 12.7 mph - N/A Fog Fog
3:55 AM 35.6 °F 28.6 °F 35.6 °F 100% 30.42 in 0.2 mi South 9.2 mph - N/A Fog , Rain Light Rain
4:55 AM 33.8 °F 21.0 °F 33.8 °F 100% 30.42 in 0.2 mi SSE 25.3 mph - N/A Fog , Rain Light Rain
5:00 AM 35 °F - 35 °F 97%  in 0 mi SSE 25.3 mph - - Rain Light Rain
5:55 AM 33.8 °F 21.0 °F 33.8 °F 100% 30.42 in 0.1 mi SSW 25.3 mph 38.0 mph N/A Fog , Snow Light Snow
6:55 AM 33.8 °F 21.6 °F 32.0 °F 93% 30.42 in 0.2 mi SSW 23.0 mph - N/A Fog , Snow Light Snow
7:55 AM 33.8 °F 24.8 °F 33.8 °F 100% 30.42 in 0.2 mi SSW 12.7 mph - N/A Fog Fog
8:00 AM 34 °F - 33 °F 95%  in 0 mi SSW 12.7 mph - - Fog Heavy Fog
8:55 AM 33.8 °F 22.8 °F 30.2 °F 87% 30.45 in 0.2 mi SSW 18.4 mph - N/A Fog Fog
9:55 AM 35.6 °F 25.9 °F 32.0 °F 87% 30.45 in 0.2 mi South 16.1 mph - N/A Fog Fog
10:55 AM 35.6 °F 26.6 °F 32.0 °F 87% 30.45 in 0.5 mi SSW 13.8 mph - N/A Fog Fog
11:00 AM 36 °F - 32 °F 81%  in 0 mi SSW 13.8 mph - - Fog Heavy Fog
11:55 AM 37.4 °F 27.5 °F 33.8 °F 87% 30.45 in 0.3 mi SSW 18.4 mph - N/A Fog Fog
12:55 PM 37.4 °F 27.8 °F 32.0 °F 81% 30.48 in 0.3 mi SSW 17.3 mph - N/A Fog Fog
1:55 PM 37.4 °F 30.3 °F 32.0 °F 81% 30.48 in 0.3 mi SSW 10.4 mph - N/A Fog Fog
2:00 PM 38 °F - 33 °F 74%  in 0 mi SSW 10.4 mph - - Fog Heavy Fog
2:55 PM 37.4 °F 32.1 °F 32.0 °F 81% 30.48 in 0.3 mi South 6.9 mph - N/A Fog Fog
3:55 PM 37.4 °F 30.8 °F 33.8 °F 87% 30.48 in 0.2 mi South 9.2 mph - N/A Fog Fog
4:55 PM 37.4 °F 27.2 °F 35.6 °F 93% 30.48 in 0.2 mi SSE 19.6 mph - N/A Fog , Rain Light Rain
5:00 PM 37 °F - 35 °F 89%  in 0 mi SSE 19.6 mph - - Rain Light Rain
5:55 PM 37.4 °F 29.3 °F 35.6 °F 93% 30.48 in 0.2 mi SSW 12.7 mph - N/A Fog , Rain Light Rain
6:55 PM 35.6 °F 25.5 °F 32.0 °F 87% 30.48 in 0.5 mi South 17.3 mph - N/A Fog Fog
7:55 PM 35.6 °F 23.4 °F 32.0 °F 87% 30.45 in 0.5 mi SSE 25.3 mph - N/A Fog Fog
8:00 PM 36 °F - 32 °F 81%  in 0 mi SSE 25.3 mph - - Fog Heavy Fog
9:55 PM 35.6 °F 24.2 °F 32.0 °F 87% 30.42 in 0.1 mi SSE 21.9 mph 44.9 mph N/A Fog , Snow Light Snow
10:55 PM 33.8 °F 25.3 °F 33.8 °F 100% 30.45 in 0.1 mi South 11.5 mph 25.3 mph N/A Fog , Snow Snow
11:00 PM 35 °F - 33 °F 91%  in 0 mi South 11.5 mph - - Snow Snow
11:55 PM 33.8 °F 23.2 °F 33.8 °F 100% 30.45 in 0.1 mi South 17.3 mph 34.5 mph N/A Fog , Snow Snow